Lapse_Rate
7.4 7.4 7.4 7.3 7.3 7.3 7.3 7.2 7.1 7.1 7.1 7.1 7.1 7.1 7.0 7.0 6.9 6.8 6.8 6.8 6.6 6.5 6.5 6.4 6.4 6.4 6.5 6.6 6.4 6.2 6.1 6.2 6.3 6.4 6.3 6.1 6.2 6.5 6.5 6.5 6.6 6.7 6.7
7.4 7.5 7.4 7.4 7.4 7.4 7.3 7.2 7.1 7.1 7.2 7.2 7.2 7.2 7.1 7.1 7.1 7.0 6.9 6.8 6.8 6.7 6.6 6.6 6.4 6.4 6.4 6.4 6.4 6.3 6.2 6.2 6.3 6.3 6.3 6.4 6.3 6.4 6.5 6.6 6.6 6.6 6.7
7.5 7.5 7.5 7.5 7.5 7.4 7.4 7.3 7.2 7.2 7.2 7.2 7.2 7.2 7.2 7.2 7.2 7.2 7.1 7.0 6.9 6.8 6.7 6.6 6.6 6.4 6.3 6.3 6.5 6.4 6.3 6.1 6.1 6.3 6.4 6.5 6.4 6.3 6.4 6.5 6.6 6.5 6.6
7.5 7.4 7.4 7.4 7.4 7.4 7.3 7.3 7.2 7.2 7.2 7.2 7.3 7.3 7.3 7.2 7.1 7.1 7.2 7.2 7.0 7.0 7.0 6.9 6.9 6.8 6.5 6.3 6.4 6.4 6.4 6.4 6.4 6.4 6.3 6.6 6.7 6.4 6.2 6.4 6.5 6.5 6.6
7.4 7.4 7.4 7.4 7.4 7.4 7.4 7.4 7.2 7.2 7.3 7.3 7.3 7.3 7.2 7.1 7.0 7.1 7.2 7.2 7.1 7.1 7.0 7.0 7.0 7.0 6.9 6.6 6.5 6.5 6.6 6.7 6.7 6.3 6.6 6.8 7.0 7.0 6.4 6.2 6.3 6.4 6.5
7.5 7.5 7.5 7.4 7.5 7.5 7.5 7.4 7.3 7.2 7.3 7.4 7.3 7.3 7.1 7.0 7.1 7.3 7.4 7.4 7.2 7.2 7.2 7.1 7.1 6.9 6.9 6.7 6.6 6.5 6.6 6.7 6.7 6.5 6.4 6.9 7.0 6.9 7.0 6.6 6.4 6.4 6.5
7.4 7.4 7.5 7.5 7.4 7.4 7.4 7.3 7.3 7.4 7.4 7.3 7.3 7.3 7.2 7.2 7.3 7.4 7.5 7.5 7.5 7.4 7.4 7.3 7.2 7.0 6.8 6.5 6.4 6.2 6.4 6.6 6.7 6.7 6.6 6.8 6.8 6.8 6.8 6.8 6.6 6.6 6.7
7.5 7.4 7.4 7.4 7.4 7.4 7.4 7.3 7.3 7.3 7.3 7.3 7.3 7.4 7.3 7.2 7.1 7.3 7.4 7.5 7.4 7.5 7.2 7.3 7.3 7.2 7.0 6.6 6.4 6.1 6.2 6.3 6.7 6.7 6.9 6.6 6.6 6.5 6.5 6.5 6.5 6.6 6.7
7.5 7.5 7.4 7.5 7.4 7.3 7.3 7.3 7.2 7.2 7.2 7.1 7.1 7.3 7.2 7.1 7.0 7.2 7.4 7.5 7.4 7.3 7.4 7.3 7.1 7.2 6.9 6.9 6.5 6.2 6.0 6.1 6.3 6.8 6.7 6.7 6.6 6.7 6.5 6.5 6.4 6.2 6.4
7.6 7.5 7.4 7.5 7.4 7.2 7.3 7.2 7.0 7.0 6.9 6.9 7.0 7.0 6.9 7.0 7.0 7.2 7.3 7.2 7.1 6.9 7.5 7.6 7.3 6.9 6.9 6.6 7.1 6.5 6.2 6.0 6.2 6.7 6.8 6.7 6.7 6.5 6.6 6.7 6.4 6.0 6.4
7.6 7.4 7.3 7.4 7.4 7.1 7.2 7.0 6.8 6.8 6.7 6.6 6.8 6.6 6.8 6.9 7.0 7.0 7.1 7.0 7.1 7.1 7.1 7.2 6.8 6.7 6.1 6.5 6.9 7.1 6.2 6.3 6.5 6.7 6.7 6.6 6.5 6.5 6.4 5.4 5.8 6.0 6.3
7.8 7.5 7.1 7.5 7.4 7.2 7.0 6.8 6.8 6.8 6.6 6.6 6.5 6.6 6.7 6.8 7.0 6.9 6.8 6.8 6.6 6.4 6.2 6.4 6.0 5.5 5.4 5.5 5.9 6.1 6.6 6.6 6.9 6.7 6.5 6.4 6.4 6.4 6.2 5.8 5.9 5.6 6.1
7.9 7.7 7.2 7.6 7.0 6.9 6.9 6.7 6.7 6.6 6.6 6.4 6.2 6.2 6.6 6.7 6.9 6.6 6.3 6.4 6.3 6.4 6.2 5.7 5.6 5.7 5.5 5.7 5.3 5.7 6.1 6.1 6.4 6.3 6.1 6.7 6.9 6.5 6.1 5.7 5.9 5.4 6.3
7.9 7.6 7.1 6.9 6.6 6.6 6.8 6.6 6.5 6.6 6.4 6.2 6.1 6.4 6.3 6.5 6.5 6.6 6.5 6.5 6.5 6.2 5.6 5.6 5.9 5.8 5.7 5.3 5.8 5.4 5.4 6.0 6.4 6.6 6.8 7.0 7.0 6.9 6.6 6.3 5.8 5.7 6.0
7.1 6.7 6.5 6.8 6.3 6.4 6.5 6.5 6.4 6.5 6.3 6.2 6.2 6.4 6.3 6.3 6.6 6.6 6.6 6.4 6.3 6.3 6.4 6.1 6.5 5.8 5.3 5.2 5.5 5.5 6.2 5.9 6.4 6.9 7.1 7.0 7.1 6.7 6.8 6.6 6.1 6.3 6.2
7.0 6.7 6.4 6.4 6.1 6.5 6.5 6.6 6.5 6.6 6.5 6.3 6.1 6.2 6.5 6.7 6.9 6.7 6.5 6.5 6.6 6.5 6.4 6.1 6.4 6.5 5.6 5.4 5.4 5.4 5.4 5.5 5.3 6.0 6.6 6.7 7.2 7.0 6.8 6.9 6.7 6.3 6.0
6.7 6.5 6.5 6.2 6.3 6.5 6.5 6.7 6.9 6.8 6.7 6.5 6.6 6.8 6.9 6.8 6.7 6.6 6.5 6.4 6.3 6.5 6.5 6.6 6.6 6.4 5.7 5.4 5.3 5.5 5.6 5.8 6.2 6.0 6.2 6.4 6.6 6.8 6.7 6.5 6.5 6.3 6.3
6.5 6.5 6.4 6.3 6.4 6.2 6.6 6.8 6.9 6.9 6.9 6.9 7.0 7.1 6.9 6.6 6.5 6.6 6.6 6.4 6.4 6.5 6.7 6.8 6.6 6.3 5.6 5.5 5.5 5.7 5.9 6.0 6.2 6.4 6.5 6.4 6.4 6.3 6.3 6.7 6.2 6.2 6.1
6.6 6.6 6.4 6.4 6.2 6.3 6.5 6.7 6.8 6.9 6.9 7.0 6.9 6.6 6.5 6.3 6.5 6.5 6.5 6.5 6.5 6.3 6.5 6.4 6.5 6.3 5.6 5.4 5.5 5.6 5.8 5.8 6.1 6.1 6.4 6.6 6.6 6.5 6.7 6.3 6.1 6.0 6.0
6.7 6.8 6.6 6.4 6.4 6.5 6.5 6.7 6.9 7.0 7.1 7.0 6.8 6.7 6.5 6.5 6.4 6.3 6.2 6.4 6.5 6.4 6.4 6.1 6.0 5.5 5.8 5.8 5.8 5.9 5.9 5.8 5.8 6.0 6.3 6.6 6.6 6.5 6.4 6.5 6.4 6.0 6.0
7.0 6.7 6.6 6.6 6.6 6.6 6.7 6.9 7.1 7.1 7.1 7.1 7.0 6.9 6.7 6.6 6.5 6.4 6.3 6.3 6.5 6.5 6.4 6.1 6.2 5.6 5.8 6.0 6.0 5.9 5.9 5.9 5.8 5.6 5.6 5.7 5.9 6.1 6.5 5.9 5.8 5.8 5.9
7.3 6.9 6.6 6.6 6.7 6.8 6.9 7.0 7.1 7.3 7.4 7.3 7.1 6.9 6.7 6.6 6.5 6.4 6.3 6.5 6.6 6.6 6.4 6.2 5.9 6.0 6.1 6.2 6.1 6.1 6.0 5.9 5.9 6.0 5.9 5.7 5.6 5.7 6.1 6.0 6.0 5.6 5.6
7.2 7.0 6.8 6.8 6.7 6.8 7.0 7.1 7.2 7.3 7.3 7.2 7.0 6.7 6.6 6.4 6.4 6.5 6.6 6.6 6.6 6.4 6.3 6.2 6.3 6.3 6.1 5.8 5.7 5.8 6.0 6.4 6.5 6.7 6.6 6.6 6.4 6.4 6.1 5.7 5.5 5.5 5.8
7.1 7.1 7.0 7.0 7.0 7.1 7.2 7.3 7.3 7.4 7.2 7.1 6.8 6.7 6.5 6.4 6.5 6.6 6.6 6.5 6.4 6.4 6.6 6.7 6.6 6.3 6.3 6.3 6.3 6.4 6.3 6.3 6.4 6.3 6.5 6.6 6.6 6.6 6.3 5.8 5.9 5.4 5.5
7.2 7.2 7.1 7.0 7.1 7.3 7.4 7.5 7.6 7.6 7.3 7.3 6.8 6.6 6.5 6.6 6.7 6.6 6.5 6.5 6.5 6.5 6.6 6.7 6.7 6.7 6.6 6.4 6.2 6.3 6.3 6.4 6.4 6.6 6.6 6.7 6.2 5.9 5.5 6.3 6.0 5.1 5.5
7.2 7.3 7.3 7.3 7.4 7.6 7.7 7.7 7.7 7.5 7.3 6.9 6.7 6.6 6.7 6.8 6.7 6.5 6.5 6.5 6.5 6.4 6.6 6.7 6.6 6.6 6.6 6.4 6.3 6.3 6.2 6.2 6.4 6.6 6.6 6.7 6.5 6.6 6.4 6.0 6.3 6.0 5.5
Wind_Speed
5 13 19 19 20 20 21 20 21 19 17 18 17 16 17 17 17 16 15 15 15 13 13 12 12 12 13 14 14 14 14 15 16 16 15 13 11 14 15 14 14 13 14
15 18 21 20 20 20 20 20 20 19 17 17 16 16 16 16 16 15 15 15 13 13 12 12 11 12 12 13 14 13 13 14 15 15 15 15 13 12 15 14 12 11 12
15 17 19 21 20 21 20 20 21 20 17 16 16 16 15 15 14 14 14 14 13 12 11 11 11 11 11 12 14 14 13 11 10 14 11 12 13 13 12 14 14 12 10
17 16 16 20 19 20 19 19 18 18 17 16 16 15 15 14 13 12 13 12 11 10 10 10 10 9 8 10 11 12 11 9 5 5 5 3 5 11 12 11 12 12 10
11 13 15 20 20 20 21 20 19 18 18 17 16 15 14 13 12 11 11 11 9 9 8 8 8 7 7 8 9 10 10 8 7 7 7 2 7 8 12 12 10 11 12
9 12 18 21 21 21 20 20 19 19 19 17 16 15 14 12 11 10 10 10 8 8 8 7 6 5 4 5 5 7 7 5 4 6 12 9 10 13 12 12 12 9 12
9 14 15 20 19 19 19 19 19 19 18 17 15 15 14 12 11 10 9 8 8 7 7 6 5 3 4 6 6 5 4 4 4 5 6 10 12 13 13 12 12 13 12
13 14 15 17 18 18 19 19 19 19 19 18 16 15 14 12 11 9 8 7 7 6 5 5 4 3 6 9 10 7 7 6 4 7 6 10 12 14 12 14 14 14 13
12 13 13 14 16 18 19 19 19 19 18 18 17 16 14 12 11 9 8 7 6 6 5 5 3 3 6 11 15 16 11 9 8 7 7 8 11 12 10 11 13 13 14
8 8 10 13 14 15 15 18 19 19 19 19 17 16 14 12 10 9 8 6 4 4 4 4 4 4 9 12 15 19 14 12 11 9 13 10 13 5 8 13 14 15 13
7 10 10 12 14 15 13 15 17 19 19 18 16 15 13 9 8 7 6 6 5 4 3 6 7 7 12 16 22 25 19 10 10 12 9 9 10 11 8 1 16 16 16
10 8 9 9 11 15 12 14 14 14 14 15 14 14 12 9 8 7 7 5 3 6 4 4 7 14 16 12 13 23 9 6 5 9 9 7 15 11 11 24 24 14 15
14 10 10 10 12 13 10 12 10 11 13 13 14 14 12 9 5 1 6 9 7 3 1 4 2 8 12 1 5 14 5 7 7 5 9 14 13 13 15 13 18 16 12
14 12 13 12 10 11 12 10 11 10 10 9 14 15 11 6 7 6 8 9 7 3 3 1 1 5 6 7 9 4 6 7 7 8 8 11 19 16 16 18 18 18 18
13 12 13 11 10 7 7 9 10 8 8 10 12 14 11 7 5 8 10 10 6 4 4 3 5 2 6 11 13 9 6 10 11 9 9 22 8 4 3 5 2 11 17
14 14 12 12 8 10 7 6 5 10 10 10 10 11 12 13 10 8 6 5 5 8 5 4 4 5 6 8 8 9 8 7 12 9 10 15 27 23 21 19 21 19 17
13 13 13 11 8 8 6 7 8 9 10 8 10 13 14 14 13 10 6 4 3 2 2 7 4 10 5 8 7 8 8 9 13 12 13 12 16 25 22 18 16 17 14
12 13 11 10 9 8 9 5 8 11 10 10 11 13 13 14 13 9 4 1 2 2 2 2 6 5 5 4 4 4 6 10 12 10 13 9 9 14 21 17 13 13 13
14 12 8 9 10 9 8 7 8 10 8 9 12 12 11 10 8 6 4 3 2 2 2 2 3 4 5 4 5 4 3 4 5 9 9 8 10 9 11 22 17 13 12
11 11 11 9 10 9 7 7 6 5 7 8 8 10 9 7 7 8 6 5 3 3 2 3 4 4 3 3 5 5 4 5 7 8 7 6 8 10 9 13 19 15 9
10 11 12 12 9 8 6 6 5 5 5 3 6 9 8 8 8 8 7 6 4 4 2 4 4 4 3 1 3 2 3 5 5 5 8 8 8 5 6 6 5 14 12
9 8 8 9 8 4 4 3 3 4 3 4 5 8 8 7 8 8 7 4 4 4 5 4 3 2 2 3 3 2 2 1 2 2 2 3 4 6 2 3 4 8 12
10 9 8 8 8 6 5 6 5 5 4 3 2 3 3 6 7 8 8 6 4 4 4 3 3 3 2 3 4 2 1 3 1 1 2 2 1 1 2 2 3 5 6
7 7 7 7 6 6 7 5 10 4 4 3 3 3 3 6 6 7 8 8 6 4 4 3 3 2 3 2 1 1 2 3 3 2 1 2 2 2 3 3 4 9 9
9 7 6 6 5 6 7 5 5 5 3 3 3 6 4 4 7 9 9 7 5 4 3 4 3 4 2 2 2 0 1 2 1 2 2 2 2 2 3 4 6 8 9
8 7 6 7 7 8 7 7 6 8 6 5 4 4 4 3 4 8 9 8 6 4 4 4 3 4 4 3 2 1 2 1 2 3 2 2 3 3 3 4 6 10 12
Wind_Direction
185 163 163 153 149 146 142 137 133 127 120 115 111 105 99 96 92 88 87 86 82 80 81 82 81 86 90 95 96 98 97 97 93 89 81 80 98 102 102 97 98 102 107
152 167 164 153 152 149 145 141 136 135 129 122 116 110 103 100 98 96 93 89 86 88 85 85 85 85 82 86 88 90 91 96 102 97 88 84 90 116 109 96 92 95 108
150 160 160 152 152 150 150 146 144 140 134 128 121 114 110 105 102 101 98 96 94 92 89 85 83 78 75 72 75 74 75 78 86 77 74 82 94 107 110 111 108 107 104
145 153 153 149 148 151 148 147 145 142 138 134 129 124 118 112 107 103 100 98 98 100 100 97 93 86 75 70 65 65 61 53 36 6 26 57 111 125 124 119 119 118 107
139 144 148 146 149 152 152 151 150 146 144 141 135 129 124 120 117 113 108 105 102 100 98 98 100 97 88 76 66 61 55 32 348 343 311 253 158 153 144 141 134 131 127
129 128 143 147 151 153 154 153 153 152 151 148 142 136 129 127 131 127 120 117 112 108 102 95 85 78 58 46 58 58 57 34 346 329 266 252 181 163 163 149 151 141 140
125 125 142 150 152 152 153 154 155 156 154 149 147 144 138 146 144 141 133 124 119 114 105 97 90 61 10 347 354 13 26 8 349 335 25 158 183 172 169 153 159 156 152
136 135 144 148 151 154 157 159 160 159 156 153 155 149 154 157 155 151 140 132 130 114 104 96 80 15 350 332 325 328 335 339 325 306 216 170 178 184 171 162 160 163 158
130 136 142 145 152 156 162 163 162 160 159 160 160 158 164 165 163 158 153 155 149 140 139 131 108 56 352 335 322 320 333 330 310 284 217 202 192 205 179 178 168 173 165
120 131 138 142 149 154 160 164 164 162 164 167 165 165 171 170 167 171 167 173 168 170 174 144 110 23 11 341 319 311 315 318 309 298 269 239 187 191 203 185 188 175 171
156 161 155 153 153 155 157 164 163 165 170 168 168 171 173 173 175 177 182 191 192 187 151 77 57 80 55 5 337 312 295 284 313 299 281 185 187 203 170 50 235 185 170
171 174 167 162 161 156 157 158 160 161 166 167 171 174 179 177 189 192 202 208 111 130 134 126 68 48 35 27 338 324 331 0 30 3 11 203 190 231 188 183 238 201 171
171 168 171 167 167 159 155 157 157 158 169 174 175 185 186 184 184 203 147 106 108 88 160 254 323 60 54 10 353 303 34 68 62 28 340 310 244 222 236 209 232 216 183
174 170 171 171 171 172 154 163 163 171 176 176 187 189 180 159 138 126 105 110 122 120 59 71 0 95 43 60 66 94 26 59 58 41 357 336 240 235 239 239 212 174 134
172 170 172 171 172 166 158 164 168 173 177 178 184 189 179 146 122 126 120 143 173 199 208 246 60 58 62 85 100 78 56 30 28 48 22 29 83 90 134 211 173 98 110
166 174 173 174 156 161 181 151 137 155 173 172 176 176 155 141 132 129 130 159 217 231 223 225 93 54 72 79 91 88 64 60 74 35 28 38 64 74 83 93 96 90 87
175 162 170 171 148 157 125 126 140 148 137 121 127 139 139 140 140 143 150 188 226 231 188 130 104 105 93 83 60 60 61 67 65 34 33 23 62 66 73 84 93 97 94
148 165 164 161 133 125 129 120 124 126 117 116 116 122 131 139 144 143 157 208 191 221 324 30 123 107 86 75 80 60 53 57 70 61 60 34 41 87 84 83 86 92 96
144 147 141 122 129 127 110 108 105 104 107 110 115 121 132 140 143 134 128 135 123 90 56 124 104 117 116 109 90 61 51 72 73 96 76 57 65 61 90 103 100 102 111
131 129 122 118 119 118 110 101 94 100 99 110 132 130 134 131 126 128 118 95 82 76 55 63 93 70 86 94 89 63 37 38 41 43 34 61 77 86 99 107 117 105 114
101 123 135 136 133 135 130 127 129 128 125 111 101 118 123 124 127 124 109 101 85 92 98 116 109 89 77 80 78 47 48 36 37 35 24 23 19 43 65 69 82 115 96
118 118 120 130 138 126 120 122 124 133 101 99 108 118 133 124 111 112 114 97 99 106 83 65 93 133 101 191 117 127 34 14 45 38 32 29 21 43 53 129 112 100 108
131 133 135 144 145 140 118 109 96 83 82 86 106 86 96 116 113 117 120 128 119 108 117 111 108 120 138 218 228 132 97 238 220 141 218 179 173 108 31 103 191 133 120
128 127 137 137 139 139 146 139 161 150 147 163 136 124 127 134 131 139 148 156 153 153 153 149 143 135 121 169 331 317 268 131 199 297 308 270 256 208 208 177 135 137 148
137 140 134 139 143 150 162 166 142 122 103 117 115 134 150 164 171 174 175 175 173 158 133 133 132 137 134 130 163 266 320 192 156 174 237 232 269 245 222 197 171 148 152
130 138 145 154 162 169 166 163 154 157 140 133 141 158 177 183 190 191 190 189 181 157 165 166 155 160 159 144 137 160 180 195 251 208 171 196 211 220 201 207 182 161 164